COSMOS 1710 (GLONASS)

Satellite information

Favourite Embed

Satellite Type and Status

PAYLOADIN ORBIT

Key statistics

Satellite COSMOS 1710 (GLONASS) at a glance.

Uptime

14442

Days in orbit

Revolutions

≈ 2.1

Per day

Orbit

MEO

Medium Earth Orbit

Inclination

66.2

Latest

Satellite identification and parameters

Extended collection of information and parameters for COSMOS 1710 (GLONASS).

Object identification

Identified? True

Debris? False

Object name: COSMOS 1710 (GLONASS)

International designator: 1985-118A

Object number (NORAD): 16396

Object ID (CCSDS): 16396

Country: COMMONWEALTH OF INDEPENDENT STATES (CIS)

Current information (Y/N): Y

RCS size: MEDIUM

Orbital parameters

Period: 675.729 minutes

Inclination: 66.2025 deg

SMA: 25507.935 km

Apoapsis: 19164.026 km

Periapsis: 19095.573 km

RAAN: 335.6269 deg

Eccentricy: 0.0013418

Argument of periapsis: 202.8138 deg

Mean anomaly: 177.4352 deg

Mean motion: 2.13103124 rev/day

Mean motion (dot): -0.00000069 rev/day2

B* drag term: 0.0 1/REarth

Two-line elements (TLE)

Creation date: July 8, 2025, 6:26 a.m.

Reference frame: TEME

Reference center: EARTH

Epoch: July 7, 2025, 10:40 p.m. UTC

TLE line 0: 0 COSMOS 1710 (GLONASS)

TLE line 1: 1 16396U 85118A 25188.94448551 -.00000069 00000-0 00000+0 0 9997

TLE line 2: 2 16396 66.2025 335.6269 0013418 202.8138 177.4352 2.13103124307784

Live tracking on map

Real-time ground track for satellite COSMOS 1710 (GLONASS).

In-orbit conjunctions

There are no conjunctions computed for COSMOS 1710 (GLONASS), at the moment. Check back to stay up to date, as we update our databases every day.

Go to all conjunctions

Associated space launch

GLONASS navigation satellites

COSMOS 1710 (GLONASS) was lifted into orbit during the mission ‘Proton | Uragan 12 & 13’, on board a Proton space rocket.

The launch took place on Dec. 24, 1985, 9:43 p.m. from 200/39 (200L).

For more information about the launch, click the button.

Launch to space Proton | Uragan 12 & 13
Proton | Uragan 12 & 13

Agency: N/A

Status: Launch Successful

Launch date: Dec. 24, 1985, 9:43 p.m. UTC

Rocket: Proton

Launch pad: 200/39 (200L)

Location: Baikonur Cosmodrome, Republic of Kazakhstan

...

Latest news about this satellite

There are no fresh news available about this satellite. Check back as we update our databases every day.


Newsletter sign-up

Weekly statistics, charts and insights to help you stay on top of the space industry.